Weather History for Fort Wayne, IN

Change the Weather History Date:

Tuesday, January 1, 2013

  Actual Average Record
Temperature  
Mean Temperature 22 °F 26 °F  
Max Temperature 32 °F 33 °F 60 °F (1985)
Min Temperature 11 °F 18 °F -13 °F (1968)
Degree Days  
Heating Degree Days 43 39  
Month to date heating degree days 43 39  
Since 1 July heating degree days 2245 2367  
Cooling Degree Days 0 0  
Month to date cooling degree days 0 0  
Year to date cooling degree days 0 0  
Moisture  
Dew Point 19 °F    
Average Humidity 78    
Maximum Humidity 92    
Minimum Humidity 63    
Precipitation  
Precipitation 0.00 in 0.08 in 1.41 in (1948)
Month to date precipitation 0.00 0.08  
Year to date precipitation 0.00 0.08  
Snow  
Snow 0.00 in 0.30 in 5.30 in (1918)
Month to date snowfall 0.0 0.3  
Since 1 July snowfall 9.6 10.9  
Snow Depth 4.00 in    
Sea Level Pressure  
Sea Level Pressure 30.13 in    
Wind  
Wind Speed 4 mph (NW)    
Max Wind Speed 10 mph    
Max Gust Speed 13 mph    
Visibility 10 miles    
Events      
T = Trace of Precipitation, MM = Missing Value Source: NWS Daily Summary

Daily Weather History Graph

Daily Weather History Graph

Search for Another Location

Airport:

Trip Planner

Search our weather history database for the weather conditions in past years. The results will help you decide how hot, cold, wet, or windy it might be!

Date:

Astronomy

Jan. 01, 2013 Rise Set
Actual Time 8:05 AM EST 5:23 PM EST
Civil Twilight 7:34 AM EST 5:54 PM EST
Nautical Twilight 7:00 AM EST 6:28 PM EST
Astronomical Twilight 6:26 AM EST 7:02 PM EST
Moon 9:56 PM EST (1/1) 10:15 AM EST (1/1)
Length of Visible Light 10h 19m
Length of Day
9h 17m
Waning Gibbous, 83% of the Moon is Illuminated
Jan 1
Waning Gibbous
Jan 4
Last Quarter
Jan 11
New
Jan 18
First Quarter
Jan 26
Full

Hourly Weather History & Observations

Time (EST) Temp. Windchill Dew Point Humidity Pressure Visibility Wind Dir Wind Speed Gust Speed Precip Events Conditions
12:54 AM 30.0 °F 22.4 °F 28.0 °F 92% 30.07 in 6.0 mi West 8.1 mph - N/A   Overcast
1:54 AM 28.9 °F 22.8 °F 26.1 °F 89% 30.06 in 6.0 mi WNW 5.8 mph - N/A   Overcast
2:54 AM 28.9 °F 23.9 °F 26.1 °F 89% 30.07 in 6.0 mi NW 4.6 mph - N/A   Overcast
3:54 AM 28.9 °F 21.9 °F 21.9 °F 75% 30.09 in 10.0 mi NW 6.9 mph - N/A   Overcast
4:54 AM 28.0 °F 21.7 °F 21.9 °F 78% 30.09 in 10.0 mi NNW 5.8 mph - N/A   Overcast
5:54 AM 27.0 °F 20.5 °F 21.0 °F 78% 30.08 in 10.0 mi NNW 5.8 mph - N/A   Overcast
6:54 AM 26.1 °F 21.9 °F 19.9 °F 78% 30.12 in 10.0 mi WNW 3.5 mph - N/A   Mostly Cloudy
7:54 AM 26.1 °F 20.5 °F 19.9 °F 78% 30.14 in 10.0 mi NW 4.6 mph - N/A   Overcast
8:54 AM 26.1 °F 20.5 °F 19.9 °F 78% 30.16 in 10.0 mi NW 4.6 mph - N/A   Overcast
9:54 AM 26.1 °F - 19.9 °F 78% 30.15 in 10.0 mi Calm Calm - N/A   Mostly Cloudy
10:54 AM 28.0 °F 24.2 °F 19.9 °F 72% 30.15 in 10.0 mi North 3.5 mph - N/A   Scattered Clouds
11:54 AM 28.0 °F - 19.9 °F 72% 30.16 in 10.0 mi Calm Calm - N/A   Mostly Cloudy
12:54 PM 28.0 °F - 21.0 °F 75% 30.15 in 10.0 mi Calm Calm - N/A   Overcast
1:54 PM 28.0 °F 20.8 °F 19.0 °F 69% 30.12 in 10.0 mi NNW 6.9 mph - N/A   Mostly Cloudy
2:54 PM 28.9 °F 21.9 °F 18.0 °F 64% 30.13 in 10.0 mi NNW 6.9 mph - N/A   Scattered Clouds
3:54 PM 26.1 °F 20.5 °F 16.0 °F 66% 30.12 in 10.0 mi NW 4.6 mph - N/A   Scattered Clouds
4:54 PM 25.0 °F - 16.0 °F 69% 30.14 in 10.0 mi Calm Calm - N/A   Scattered Clouds
5:54 PM 19.0 °F - 12.9 °F 77% 30.14 in 10.0 mi Calm Calm - N/A   Scattered Clouds
6:54 PM 12.9 °F - 10.0 °F 88% 30.15 in 10.0 mi Calm Calm - N/A   Scattered Clouds
7:54 PM 16.0 °F - 12.9 °F 88% 30.17 in 10.0 mi Calm Calm - N/A   Scattered Clouds
8:54 PM 16.0 °F 7.4 °F 12.0 °F 84% 30.17 in 10.0 mi West 5.8 mph - N/A   Mostly Cloudy
9:54 PM 18.0 °F 8.7 °F 14.0 °F 84% 30.17 in 10.0 mi WNW 6.9 mph - N/A   Partly Cloudy
10:54 PM 16.0 °F 7.4 °F 12.9 °F 88% 30.17 in 10.0 mi West 5.8 mph - N/A   Scattered Clouds
11:54 PM 16.0 °F 7.4 °F 12.0 °F 84% 30.18 in 10.0 mi West 5.8 mph - N/A   Partly Cloudy